Location: Congrier
(47.8099°N, 1.1170°W)
Time: 18:44:20
(UTC+00:00)

Cosmos 1844 Rocket - Pass Details

Date: 28 January 2023
Orbit: 825 x 843 km, 71.0° (Epoch: 25 March)

Event Time Altitude Azimuth Distance (km) Brightness Sun altitude
Rises 19:23:57 0° 334° (NNW) 3,378 6.2 -24.4°
Reaches altitude 10° 19:26:25 10° 337° (NNW) 2,439 5.4 -24.8°
Enters shadow 19:31:40 64° 39° (NE) 913 2.6 -25.7°
